Palmdale, CA

12:29 AM PDT on April 28, 2017 (GMT -0700)
Palmdale Af Plant 42

Weather History for KPMD - September, 2013

Change the Weather History Date:

Tuesday, September 17, 2013

  Actual Average Record
Temperature  
Mean Temperature 76 °F 73 °F  
Max Temperature 91 °F 90 °F 104 °F (1937)
Min Temperature 61 °F 57 °F 44 °F (2006)
Degree Days  
Heating Degree Days 0 0  
Month to date heating degree days 0 0  
Since 1 July heating degree days 0 0  
Cooling Degree Days 11 9  
Month to date cooling degree days 296 188  
Year to date cooling degree days 2061 1670  
Growing Degree Days 26 (Base 50)    
Moisture  
Dew Point 33 °F    
Average Humidity 24    
Maximum Humidity 40    
Minimum Humidity 7    
Precipitation  
Precipitation 0.00 in 0.01 in 0.28 in (1963)
Month to date precipitation 0.00 0.15  
Year to date precipitation 0.99 5.71  
Since 1 July precipitation 0.13  
Snow  
Snow 0.00 in - 0.00 in (1973)
Month to date snowfall 0.0  
Since 1 July snowfall 0.0  
Since 1 September snowfall 0.0  
Snow Depth 0.00 in    
Sea Level Pressure  
Sea Level Pressure 29.74 in    
Wind  
Wind Speed 14 mph (West)    
Max Wind Speed 28 mph    
Max Gust Speed 33 mph    
Visibility 10 miles    
Events      
T = Trace of Precipitation, MM = Missing Value Source: NWS Daily Summary

Daily Weather History Graph

Daily Weather History Graph

Search for Another Location

Airport or City:

Trip Planner

Search our weather history database for the weather conditions in past years. The results will help you decide how hot, cold, wet, or windy it might be!

Date:

Astronomy

Sep. 17, 2013 Rise Set
Actual Time 6:37 AM PDT 6:55 PM PDT
Civil Twilight 6:11 AM PDT 7:20 PM PDT
Nautical Twilight 5:42 AM PDT 7:50 PM PDT
Astronomical Twilight 5:12 AM PDT 8:20 PM PDT
Moon 5:44 PM PDT (9/17) 4:40 AM PDT (9/17)
Length of Visible Light 13h 09m
Length of Day
12h 18m
Waxing Gibbous, 96% of the Moon is Illuminated
Sep 17
Waxing Gibbous
Sep 19
Full
Sep 26
Last Quarter
Oct 4
New
Oct 11
First Quarter

Hourly Weather History & Observations

Time (PDT) Temp. Dew Point Humidity Pressure Visibility Wind Dir Wind Speed Gust Speed Precip Events Conditions
12:53 AM 72.0 °F 28.9 °F 20% 29.78 in 10.0 mi West 8.1 mph - N/A   Clear
1:53 AM 69.1 °F 28.9 °F 22% 29.77 in 10.0 mi West 5.8 mph - N/A   Clear
2:53 AM 69.1 °F 33.1 °F 26% 29.75 in 10.0 mi NW 9.2 mph - N/A   Clear
3:53 AM 66.0 °F 33.1 °F 29% 29.75 in 10.0 mi SW 6.9 mph - N/A   Clear
4:53 AM 66.9 °F 33.1 °F 28% 29.76 in 10.0 mi West 10.4 mph - N/A   Clear
5:53 AM 64.0 °F 32.0 °F 30% 29.76 in 10.0 mi ESE 5.8 mph - N/A   Clear
6:53 AM 63.0 °F 30.9 °F 30% 29.78 in 10.0 mi Variable 3.5 mph - N/A   Clear
7:53 AM 66.9 °F 32.0 °F 27% 29.79 in 10.0 mi Calm Calm - N/A   Clear
8:53 AM 73.9 °F 32.0 °F 21% 29.77 in 10.0 mi NE 4.6 mph - N/A   Clear
9:53 AM 80.1 °F 30.9 °F 17% 29.77 in 10.0 mi Calm Calm - N/A   Clear
10:53 AM 84.9 °F 30.0 °F 14% 29.74 in 10.0 mi WSW 17.3 mph 25.3 mph N/A   Clear
11:53 AM 88.0 °F 28.0 °F 12% 29.73 in 10.0 mi SW 16.1 mph - N/A   Clear
12:53 PM 88.0 °F 28.0 °F 12% 29.72 in 10.0 mi West 18.4 mph - N/A   Clear
1:53 PM 89.1 °F 27.0 °F 11% 29.70 in 10.0 mi West 20.7 mph 27.6 mph N/A   Clear
2:53 PM 89.1 °F 18.0 °F 7% 29.68 in 10.0 mi West 23.0 mph 29.9 mph N/A   Clear
3:53 PM 88.0 °F 19.9 °F 8% 29.67 in 10.0 mi WSW 21.9 mph 31.1 mph N/A   Clear
4:53 PM 86.0 °F 26.1 °F 11% 29.68 in 10.0 mi West 19.6 mph - N/A   Clear
5:53 PM 82.9 °F 32.0 °F 16% 29.69 in 10.0 mi West 24.2 mph - N/A   Clear
6:53 PM 78.1 °F 36.0 °F 22% 29.71 in 10.0 mi West 23.0 mph - N/A   Clear
7:53 PM 73.9 °F 43.0 °F 33% 29.73 in 10.0 mi WNW 15.0 mph - N/A   Clear
8:53 PM 72.0 °F 44.1 °F 37% 29.75 in 10.0 mi WNW 16.1 mph - N/A   Clear
9:53 PM 72.0 °F 45.0 °F 38% 29.75 in 10.0 mi West 21.9 mph - N/A   Clear
10:53 PM 70.0 °F 45.0 °F 41% 29.75 in 10.0 mi WNW 23.0 mph - N/A   Clear
11:53 PM 69.1 °F 44.1 °F 40% 29.75 in 10.0 mi WNW 18.4 mph - N/A   Clear